Overview Statistics Trail Chart Weather Telemetry Raw packets
 

This is the latest recevied weather packets stored in our database for station/object SM4JDW-10. If no packets are shown the sender has not sent any weather packets the latest 10 day(s).

<< 6 7 8 9 10 11 12 >>
Time Temp. Humidity Pressure Rain* Wind** Luminosity Snow
1788275283 20° C 47% 1005.9 hPa - - - -
1788273483 20.56° C 46% 1006 hPa - - - -
1788271683 21.11° C 49% 1006 hPa - - - -
1788269883 21.11° C 50% 1006.2 hPa - - - -
1788268083 21.11° C 49% 1006.3 hPa - - - -
1788266283 20.56° C 50% 1006.3 hPa - - - -
1788264483 20° C 56% 1006.4 hPa - - - -
1788262682 19.44° C 56% 1006.4 hPa - - - -
1788260882 18.33° C 56% 1006.5 hPa - - - -
1788259082 17.22° C 54% 1006.5 hPa - - - -
1788257282 16.67° C 65% 1006.4 hPa - - - -
1788255481 15° C 69% 1006.2 hPa - - - -
1788253693 13.89° C 72% 1006.3 hPa - - - -
1788251893 12.78° C 74% 1006.4 hPa - - - -
1788250093 11.67° C 77% 1006.3 hPa - - - -
1788248293 11.67° C 78% 1006.3 hPa - - - -
1788246492 11.67° C 81% 1006.3 hPa - - - -
1788244692 11.11° C 82% 1006.2 hPa - - - -
1788242892 11.11° C 80% 1006.1 hPa - - - -
1788241092 11.11° C 81% 1005.9 hPa - - - -
1788239292 11.11° C 80% 1005.9 hPa - - - -
1788237492 11.67° C 80% 1005.8 hPa - - - -
1788235692 11.67° C 79% 1005.8 hPa - - - -
1788233892 12.22° C 79% 1005.6 hPa - - - -
1788232092 12.78° C 79% 1005.4 hPa - - - -

* Rain since midnight (hover to see other rain measurements)
** Current wind speed in m/s (hover to see current wind gust speed)